TimeAEST,TemperatureF,Dew PointF,Humidity,Sea Level PressureIn,VisibilityMPH,Wind Direction,Wind SpeedMPH,Gust SpeedMPH,PrecipitationIn,Events,Conditions,WindDirDegrees,DateUTC
12:00 AM,46,41,76,29.98,,North,6.9,,,,Overcast,0,2013-08-08 14:00:00
12:00 AM,46.4,41.0,81,29.98,6.2,North,6.9,-,N/A,,Overcast,360,2013-08-08 14:00:00
12:30 AM,48.2,41.0,76,29.95,6.2,North,9.2,-,N/A,,Overcast,10,2013-08-08 14:30:00
1:00 AM,50.0,41.0,71,29.95,6.2,North,10.4,-,N/A,,Overcast,10,2013-08-08 15:00:00
1:30 AM,48.2,41.0,76,29.95,6.2,ENE,5.8,-,N/A,,Overcast,60,2013-08-08 15:30:00
2:00 AM,51.8,41.0,67,29.92,6.2,North,11.5,-,N/A,,Overcast,10,2013-08-08 16:00:00
2:30 AM,46.4,42.8,87,29.92,6.2,ENE,8.1,-,N/A,,Drizzle,60,2013-08-08 16:30:00
3:00 AM,48,44,81,29.93,,NE,9.2,,,,Overcast,40,2013-08-08 17:00:00
3:00 AM,48.2,44.6,87,29.92,6.2,NE,9.2,-,N/A,,Drizzle,40,2013-08-08 17:00:00
3:30 AM,48.2,44.6,87,29.89,6.2,NNE,12.7,-,N/A,Rain,Light Rain,30,2013-08-08 17:30:00
4:00 AM,50.0,42.8,76,29.89,6.2,North,12.7,-,N/A,,Drizzle,10,2013-08-08 18:00:00
4:30 AM,50.0,44.6,82,29.89,6.2,North,12.7,-,N/A,,Heavy Drizzle,10,2013-08-08 18:30:00
5:00 AM,50.0,44.6,82,29.89,6.2,North,11.5,-,N/A,Rain,Light Rain,360,2013-08-08 19:00:00
5:30 AM,50.0,44.6,82,29.89,6.2,NNE,10.4,-,N/A,Rain,Light Rain,20,2013-08-08 19:30:00
6:00 AM,49,44,78,29.88,,NNE,6.9,,,,Overcast,20,2013-08-08 20:00:00
6:00 AM,50.0,44.6,82,29.86,6.2,NNE,6.9,-,N/A,Rain,Light Rain,20,2013-08-08 20:00:00
6:30 AM,50.0,42.8,76,29.86,6.2,North,16.1,-,N/A,Rain,Light Rain Showers,10,2013-08-08 20:30:00
7:00 AM,50.0,42.8,76,29.86,6.2,NNE,11.5,-,N/A,Rain,Light Rain Showers,30,2013-08-08 21:00:00
7:30 AM,50.0,44.6,82,29.86,6.2,NNE,10.4,-,N/A,Rain,Light Rain Showers,30,2013-08-08 21:30:00
8:00 AM,50.0,42.8,76,29.86,6.2,ENE,15.0,-,N/A,,Overcast,70,2013-08-08 22:00:00
8:30 AM,51.8,42.8,71,29.83,6.2,ENE,15.0,26.5,N/A,,Overcast,60,2013-08-08 22:30:00
9:00 AM,51,43,66,29.85,,North,8.1,,,,Overcast,10,2013-08-08 23:00:00
9:00 AM,51.8,42.8,71,29.83,6.2,North,8.1,-,N/A,,Overcast,10,2013-08-08 23:00:00
9:30 AM,51.8,42.8,71,29.83,6.2,NE,13.8,-,N/A,,Overcast,40,2013-08-08 23:30:00
10:00 AM,53.6,42.8,67,29.80,6.2,North,21.9,-,N/A,,Overcast,350,2013-08-09 00:00:00
10:08 AM,53.6,42.8,67,29.80,6.2,North,23.0,36.8,N/A,,Overcast,350,2013-08-09 00:08:00
10:30 AM,53.6,42.8,67,29.80,6.2,North,28.8,-,N/A,Rain,Light Rain Showers,350,2013-08-09 00:30:00
11:00 AM,53.6,42.8,67,29.80,6.2,North,25.3,-,N/A,Rain,Light Rain Showers,360,2013-08-09 01:00:00
11:23 AM,53.6,42.8,67,29.80,6.2,North,21.9,33.4,N/A,,Overcast,360,2013-08-09 01:23:00
11:30 AM,53.6,42.8,67,29.80,6.2,North,21.9,33.4,N/A,,Overcast,360,2013-08-09 01:30:00
12:00 PM,54,43,58,29.80,,North,19.6,,,,Overcast,350,2013-08-09 02:00:00
12:00 PM,53.6,42.8,67,29.80,6.2,North,19.6,-,N/A,,Overcast,350,2013-08-09 02:00:00
12:08 PM,55.4,42.8,63,29.77,6.2,North,21.9,34.5,N/A,,Overcast,350,2013-08-09 02:08:00
12:30 PM,53.6,42.8,67,29.77,6.2,NNW,19.6,-,N/A,Rain,Light Rain,340,2013-08-09 02:30:00
1:00 PM,53.6,42.8,67,29.77,6.2,NNW,19.6,-,N/A,,Overcast,340,2013-08-09 03:00:00
1:34 PM,53.6,44.6,72,29.74,6.2,North,21.9,33.4,N/A,,Light Drizzle,360,2013-08-09 03:34:00
2:00 PM,53.6,46.4,77,29.74,6.2,North,25.3,-,N/A,Rain,Light Rain,360,2013-08-09 04:00:00
2:14 PM,53.6,46.4,77,29.74,6.2,North,24.2,35.7,N/A,Rain,Light Rain Showers,360,2013-08-09 04:14:00
2:30 PM,53.6,46.4,77,29.74,6.2,North,23.0,34.5,N/A,,Overcast,350,2013-08-09 04:30:00
3:00 PM,55,46,64,29.76,,North,21.9,,,,Overcast,0,2013-08-09 05:00:00
3:00 PM,55.4,46.4,72,29.74,6.2,North,21.9,-,N/A,Rain,Light Rain Showers,350,2013-08-09 05:00:00
3:30 PM,55.4,46.4,72,29.77,6.2,North,23.0,-,N/A,,Overcast,350,2013-08-09 05:30:00
4:00 PM,55.4,46.4,72,29.74,6.2,NNW,24.2,-,N/A,,Overcast,340,2013-08-09 06:00:00
4:30 PM,55.4,46.4,72,29.74,6.2,NNW,23.0,-,N/A,,Overcast,340,2013-08-09 06:30:00
5:00 PM,55.4,46.4,72,29.77,6.2,North,17.3,-,N/A,,Overcast,350,2013-08-09 07:00:00
5:30 PM,55.4,46.4,72,29.77,6.2,North,17.3,-,N/A,,Overcast,350,2013-08-09 07:30:00
6:00 PM,54,46,67,29.79,,North,18.4,,,,Overcast,350,2013-08-09 08:00:00
6:00 PM,53.6,46.4,77,29.77,6.2,North,18.4,-,N/A,,Overcast,350,2013-08-09 08:00:00
6:30 PM,53.6,46.4,77,29.80,6.2,North,15.0,-,N/A,,Overcast,360,2013-08-09 08:30:00
7:00 PM,53.6,44.6,72,29.80,6.2,North,17.3,-,N/A,,Mostly Cloudy,360,2013-08-09 09:00:00
7:30 PM,51.8,44.6,76,29.80,6.2,North,13.8,-,N/A,,Unknown,10,2013-08-09 09:30:00
8:00 PM,51.8,46.4,82,29.83,6.2,North,10.4,-,N/A,,Mostly Cloudy,10,2013-08-09 10:00:00
8:30 PM,51.8,46.4,82,29.83,6.2,North,13.8,-,N/A,,Scattered Clouds,360,2013-08-09 10:30:00
9:00 PM,52,46,74,29.85,,North,12.7,,,,,0,2013-08-09 11:00:00
9:00 PM,51.8,46.4,82,29.83,6.2,North,12.7,-,N/A,,Unknown,360,2013-08-09 11:00:00
9:30 PM,51.8,46.4,82,29.86,6.2,North,10.4,-,N/A,,Unknown,360,2013-08-09 11:30:00
10:00 PM,50.0,44.6,82,29.86,6.2,North,11.5,-,N/A,,Unknown,360,2013-08-09 12:00:00
10:30 PM,50.0,46.4,87,29.83,6.2,North,11.5,-,N/A,,Unknown,10,2013-08-09 12:30:00
11:00 PM,50.0,44.6,82,29.86,6.2,North,9.2,-,N/A,,Scattered Clouds,10,2013-08-09 13:00:00
11:30 PM,48.2,44.6,87,29.86,6.2,North,8.1,-,N/A,,Scattered Clouds,360,2013-08-09 13:30:00